TimeMST,TemperatureF,Dew PointF,Humidity,Sea Level PressureIn,VisibilityMPH,Wind Direction,Wind SpeedMPH,Gust SpeedMPH,PrecipitationIn,Events,Conditions,WindDirDegrees,DateUTC
12:56 AM,19.9,17.1,89,30.03,-9999.0,Calm,Calm,-,N/A,,Unknown,0,2013-03-08 07:56:00
1:56 AM,21.0,18.0,88,30.00,-9999.0,Calm,Calm,-,N/A,,Unknown,0,2013-03-08 08:56:00
2:56 AM,19.0,16.0,88,30.00,-9999.0,Calm,Calm,-,N/A,,Unknown,0,2013-03-08 09:56:00
3:56 AM,18.0,15.1,88,29.99,-9999.0,Calm,Calm,-,N/A,,Unknown,0,2013-03-08 10:56:00
4:56 AM,17.1,15.1,92,29.99,-9999.0,Calm,Calm,-,N/A,,Unknown,0,2013-03-08 11:56:00
5:56 AM,18.0,15.1,88,29.99,-9999.0,Calm,Calm,-,N/A,,Unknown,0,2013-03-08 12:56:00
6:56 AM,18.0,16.0,92,29.99,-9999.0,Calm,Calm,-,N/A,,Unknown,0,2013-03-08 13:56:00
7:56 AM,19.9,19.0,96,29.98,-9999.0,Calm,Calm,-,0.01,,Unknown,0,2013-03-08 14:56:00
8:56 AM,23.0,19.9,88,29.97,-9999.0,Calm,Calm,-,N/A,,Unknown,0,2013-03-08 15:56:00
9:56 AM,28.0,21.9,78,29.92,-9999.0,Calm,Calm,-,N/A,,Unknown,0,2013-03-08 16:56:00
10:56 AM,28.9,21.0,72,29.92,-9999.0,Calm,Calm,-,N/A,,Unknown,0,2013-03-08 17:56:00
11:56 AM,32.0,21.9,66,29.90,-9999.0,East,3.5,-,N/A,,Unknown,100,2013-03-08 18:56:00
12:56 PM,34.0,23.0,64,29.86,-9999.0,Variable,3.5,-,N/A,,Unknown,0,2013-03-08 19:56:00
1:56 PM,33.1,25.0,72,29.85,-9999.0,West,8.1,-,N/A,,Unknown,260,2013-03-08 20:56:00
2:56 PM,34.0,24.1,67,29.84,-9999.0,Calm,Calm,-,N/A,,Unknown,0,2013-03-08 21:56:00
3:56 PM,30.9,25.0,79,29.87,-9999.0,Variable,5.8,-,N/A,,Unknown,0,2013-03-08 22:56:00
4:56 PM,30.9,25.0,79,29.88,-9999.0,WNW,6.9,-,0.02,,Unknown,290,2013-03-08 23:56:00
5:56 PM,28.9,27.0,92,29.89,-9999.0,Calm,Calm,-,0.01,,Unknown,0,2013-03-09 00:56:00
6:56 PM,26.1,23.0,88,29.93,-9999.0,Calm,Calm,-,N/A,,Unknown,0,2013-03-09 01:56:00
7:56 PM,24.1,21.0,88,29.94,-9999.0,Calm,Calm,-,N/A,,Unknown,0,2013-03-09 02:56:00
8:56 PM,19.9,18.0,92,29.95,-9999.0,Calm,Calm,-,N/A,,Unknown,0,2013-03-09 03:56:00
9:56 PM,18.0,16.0,92,29.94,-9999.0,NW,3.5,-,N/A,,Unknown,310,2013-03-09 04:56:00
10:56 PM,18.0,15.1,88,29.94,-9999.0,Calm,Calm,-,N/A,,Unknown,0,2013-03-09 05:56:00
11:56 PM,15.1,12.0,88,29.94,-9999.0,Calm,Calm,-,N/A,,Unknown,0,2013-03-09 06:56:00